Retour au catalogue

METEOSAT 7 AKM

ActifGEO
NORAD 25353·ROCKET BODY·🇪🇺 EU

Lancé Sep 2, 1997 depuis Guiana Space Centre

Loading…

TLE

FraisSource: Space-Track

Époque: Sep 14, 2026, 09:43 UTC

1 25353U 97049E   26257.40501506  .00000039  00000-0  00000-0 0  9992
2 25353  14.1874 358.5684 0073263 336.3359  23.3475  1.00649132112405

Suivez METEOSAT 7 AKM en temps réel avec AllMySat

Download on the App Store